Other Public Products
Issued by NWS Grand Forks, ND

Home | Current Version | Previous Version | Text Only | Print | Product List | Glossary On
Versions: 1 2 3 4 5 6 7 8 9 10 11 12 13 14 15 16 17 18 19 20 21 22 23 24 25 26 27 28 29 30 31 32 33 34 35 36 37 38 39 40 41 42 43 44 45 46 47 48 49 50
000
FPUS83 KFGF 010610
OPUFGF
PRAIRIE TO PINES WEATHER ROUNDUP
NATIONAL WEATHER SERVICE EASTERN NORTH DAKOTA/GRAND FORKS ND
100 AM CDT WED OCT 01 2014

 **SATELLITE DATA USED TO AUGMENT SKY COVER AT AUTOMATED STATIONS**
 *****  WEATHER ACROSS EASTERN NORTH DAKOTA  *****

CITY           SKY/WX    TMP DP  RH WIND       PRES   REMARKS
GRAND FORKS    CLOUDY    59  51  75 SE23G32   29.52F
6HR MIN TEMP:  57; 6HR MAX TEMP:  60;

GRAND FORKS AF CLOUDY    60  56  87 S22G29    29.51F
GRAND CITY NWS   N/A     57 N/A N/A SE23        N/A
BUXTON         NOT AVBL
DEVILS LAKE    CLOUDY    57  52  82 S24G31    29.39F
6HR MIN TEMP:  54; 6HR MAX TEMP:  57; 6HR PCP:  0.01;

FARGO          CLOUDY    62  55  77 S21G37    29.57F
6HR MIN TEMP:  58; 6HR MAX TEMP:  62; 6HR PCP: TRACE;

WAHPETON ARPT  MOCLDY    59  54  82 S17G23    29.63F
$$

 *****  WEATHER ACROSS CENTRAL AND WESTERN NORTH DAKOTA  *****

CITY           SKY/WX    TMP DP  RH WIND       PRES   REMARKS
JAMESTOWN      CLOUDY    59  53  80 S18G30    29.47R
6HR MIN TEMP:  52; 6HR MAX TEMP:  60;

BISMARCK       CLOUDY    53  51  93 SW13      29.49R
6HR MIN TEMP:  53; 6HR MAX TEMP:  56; 6HR PCP:  0.07;

MINOT          CLOUDY    51  50  96 W8        29.40S FOG
6HR MIN TEMP:  51; 6HR MAX TEMP:  52; 6HR PCP:  0.34;

MINOT AFB      DRIZZLE   51  51 100 NW10      29.39F FOG
6HR MIN TEMP:  51; 6HR MAX TEMP:  51; 6HR PCP:  0.33;

GARRISON         N/A     51  50  96 W9        29.43R
6HR MIN TEMP:  51; 6HR MAX TEMP:  52; 6HR PCP:  0.44;

WILLISTON      LGT RAIN  52  50  93 SW6       29.49S
6HR MIN TEMP:  51; 6HR MAX TEMP:  53; 6HR PCP:  0.08;

DICKINSON      CLOUDY    53  51  93 W17       29.51S
6HR MIN TEMP:  51; 6HR MAX TEMP:  53; 6HR PCP:  0.03;

HETTINGER      CLOUDY    53  51  93 W15       29.58R
6HR MIN TEMP:  51; 6HR MAX TEMP:  54; 6HR PCP: TRACE;

$$

 *****  OTHER OBSERVATIONS NORTHEAST NORTH DAKOTA  *****

CITY           SKY/WX    TMP DP  RH WIND       PRES   REMARKS
WALHALLA         N/A     55  54  94 SE18G28   29.50F
LANGDON        CLOUDY    54  48  82 SE25G35   29.46F
CAVALIER       CLOUDY    57  50  77 SE13G23   29.51F
GRAFTON        CLOUDY    57  52  82 SE23G30   29.51F
CANDO          CLOUDY    55  54  94 SE18G25   29.38F FOG
FORT TOTTEN    NOT AVBL
ROLLA          CLOUDY    50  50 100 E18G25    29.41F
RUGBY          CLOUDY    54  54 100 SE13      29.34F FOG
 ***** THE ABOVE OBSERVATIONS ARE NON NWS ARE NOT QUALITY
        CONTROLLED AND MAY MIS-REPORT RAIN FOR SNOW...
$$

 *****  OTHER OBSERVATIONS SOUTHEAST NORTH DAKOTA *****

CITY           SKY/WX    TMP DP  RH WIND       PRES   REMARKS
COOPERSTOWN    NOT AVBL
VALLEY CITY    CLOUDY    59  59 100 S17G24    29.51S
OAKES            N/A     59  55  88 S17G24    29.56S
GWINNER        PTCLDY    63  57  82 S16       29.58R
SHEYENNE NWR     N/A     61  58  90 S17       29.95
BUFFALO        NOT AVBL
WYNDMERE         N/A     63  59  88 S12         N/A
 ***** THE ABOVE OBSERVATIONS ARE NON NWS ARE NOT QUALITY
       CONTROLLED AND MAY MIS-REPORT RAIN FOR SNOW...
$$

  *****  WEATHER ACROSS NORTHERN MINNESOTA  *****

CITY           SKY/WX    TMP DP  RH WIND       PRES   REMARKS
FLAG ISLAND    CLOUDY    54  45  71 SE21      29.71S
WARROAD        CLOUDY    52  46  82 SE14      29.68F
ROSEAU         CLOUDY    54  46  76 SE15G21   29.66S
HALLOCK        CLOUDY    57  48  72 SE18G25   29.55F
THF RVR FALLS  CLOUDY    57  46  67 SE21G31   29.62F
6HR MIN TEMP:  55; 6HR MAX TEMP:  57;

HALSTAD          N/A     61  52  71 S25         N/A
FOSSTON        PTCLDY    54  46  76 SE18      29.66F
BAUDETTE       CLOUDY    49  42  77 SE14G23   29.73F
6HR MIN TEMP:  49; 6HR MAX TEMP:  54;

WASKISH        CLOUDY    52  45  76 SE14G24   29.73F
CROOKSTON      CLOUDY    61  52  72 S29G36    29.59S
$$
  *****  WEATHER ACROSS CENTRAL AND WEST MINNESOTA  *****

CITY           SKY/WX    TMP DP  RH WIND       PRES   REMARKS
BEMIDJI        MOCLDY    49  45  83 SE14G21   29.75S
PARK RAPIDS    CLOUDY    52  45  77 SE17      29.74F
6HR MIN TEMP:  51; 6HR MAX TEMP:  54;

WADENA         CLEAR     48  45  87 SE15      29.74F
DETROIT LAKES  CLOUDY    54  48  82 SE18G25   29.68F
MOORHEAD       NOT AVBL
FERGUS FALLS   CLOUDY    61  54  77 S21G33    29.68S
ELBOW LAKE     CLOUDY    58  55  87 SE20G32   29.69S
6HR MIN TEMP:  55; 6HR MAX TEMP:  59;

MORRIS MN      CLEAR     59  55  88 S15       29.71R
STAPLES        CLEAR     50  45  81 SE9G21    29.77S
WHEATON        CLEAR     57  55  94 SE15      29.67S
$$
  *****  WEATHER ELSEWHERE ACROSS MINNESOTA  *****

CITY           SKY/WX    TMP DP  RH WIND       PRES   REMARKS
DULUTH         CLOUDY    48  45  89 E14       29.89F
6HR MIN TEMP:  45; 6HR MAX TEMP:  48;

INTRNTL FALLS  MOCLDY    45  40  82 SE12G17   29.83F
6HR MIN TEMP:  45; 6HR MAX TEMP:  51;

ELY            CLOUDY    43  39  87 S3        29.92R
CLOQUET        CLOUDY    46  45  93 SE8       29.89F
BRAINERD       MOCLDY    49  44  83 SE9       29.81F
6HR MIN TEMP:  49; 6HR MAX TEMP:  53;

HIBBING        CLOUDY    47  43  86 SE8       29.89F
6HR MIN TEMP:  43; 6HR MAX TEMP:  47;

ALEXANDRIA     PTCLDY    52  49  89 SE12      29.75F
6HR MIN TEMP:  51; 6HR MAX TEMP:  54;

SAINT CLOUD    CLOUDY    54  47  77 SE12      29.82S
6HR MIN TEMP:  53; 6HR MAX TEMP:  56; 6HR PCP:  0.01;

MINNEAPOLIS    MOCLDY    52  45  77 SE15      29.88S
6HR MIN TEMP:  52; 6HR MAX TEMP:  55;

$$

  *****  WEATHER ACROSS SOUTH DAKOTA  *****

CITY           SKY/WX    TMP DP  RH WIND       PRES   REMARKS
SIOUX FALLS    CLOUDY    62  59  90 S10       29.75F
6HR MIN TEMP:  62; 6HR MAX TEMP:  67;

BROOKINGS      NOT AVBL
WATERTOWN      PTCLDY    61  59  93 S15G25    29.69S
6HR MIN TEMP:  61; 6HR MAX TEMP:  63; 6HR PCP:  0.06;

HURON          MOCLDY    61  59  93 S10       29.67S
6HR MIN TEMP:  61; 6HR MAX TEMP:  73;

SISSETON         N/A     64  60  87 S18G28    29.63S
ABERDEEN       CLEAR     60  51  72 S14G23    29.61R
6HR MIN TEMP:  60; 6HR MAX TEMP:  69;

MITCHELL       PTCLDY    63  61  93 S16       29.70S
PIERRE         MOCLDY    57  49  74 W8        29.63F
6HR MIN TEMP:  55; 6HR MAX TEMP:  65;

MOBRIDGE       PTCLDY    58  52  80 SW12      29.57R
RAPID CITY     MOCLDY    49  44  83 CALM      29.72R
6HR MIN TEMP:  49; 6HR MAX TEMP:  65;

$$

  *****  SOME WEATHER IN NEARBY STATES *****

CITY           SKY/WX    TMP DP  RH WIND       PRES   REMARKS
GLASGOW MT     CLOUDY    54  48  80 W16G24    29.62R
6HR MIN TEMP:  54; 6HR MAX TEMP:  63; 6HR PCP:  0.12;

GREAT FALLS MT MOCLDY    43  40  89 NW8       29.91R
6HR MIN TEMP:  43; 6HR MAX TEMP:  51; 6HR PCP:  0.01;

CHEYENNE WY    CLOUDY    48  37  65 W9        29.89S
6HR MIN TEMP:  48; 6HR MAX TEMP:  56;

SCOTTSBLUFF NE CLOUDY    57  45  64 W9        29.79S
6HR MIN TEMP:  57; 6HR MAX TEMP:  65;

OMAHA NE       TSTM      65  61  87 SE17      29.77R FOG
6HR MIN TEMP:  64; 6HR MAX TEMP:  66; 6HR PCP:  0.85;

DES MOINES IA  CLOUDY    65  56  72 SE8       29.83F
6HR MIN TEMP:  65; 6HR MAX TEMP:  69; 6HR PCP: TRACE;

DAVENPORT IA   NOT AVBL
CHICAGO IL     CLOUDY    55  46  71 E8        30.01S
6HR MIN TEMP:  52; 6HR MAX TEMP:  55; 6HR PCP: TRACE;

EAU CLAIRE WI  CLOUDY    47  41  80 S8        29.97R
6HR MIN TEMP:  47; 6HR MAX TEMP:  52;

LA CROSSE WI   CLOUDY    49  43  80 E6        29.96F
6HR MIN TEMP:  49; 6HR MAX TEMP:  53;

$$

  *****  SOME NATIONAL WEATHER *****

CITY           SKY/WX    TMP DP  RH WIND       PRES   REMARKS
LA GUARDIA NY  CLOUDY    63  59  88 NE13      29.99R



USA.gov is the U.S. government's official web portal to all federal, state and local government web resources and services.